﻿_id,日時,平均風速(m/s),平均風向,最大瞬間風速(m/s),最大風速時風向,気温(℃),湿度(%),10分間移動積算雨量(mm),1時間移動積算雨量(mm),日雨量(mm),累計雨量(mm)
1,2023-04-17T00:00:00,0.8,南東,1.7,南東,9.5,91.4,0,1.5,3,26.5
2,2023-04-17T00:01:00,0.8,南東,1.7,南東,9.5,91.9,0,1.5,0,26.5
3,2023-04-17T00:02:00,0.7,南東,1.7,南東,9.4,91.7,0,1.5,0,26.5
4,2023-04-17T00:03:00,0.7,南東,1.7,南東,9.4,91.8,0,1.5,0,26.5
5,2023-04-17T00:04:00,0.6,南,1.7,南東,9.4,92.1,0,1,0,26.5
6,2023-04-17T00:05:00,0.5,西南西,1.7,南東,9.4,91.9,0,1,0,26.5
7,2023-04-17T00:06:00,0.5,西,1.7,南東,9.3,91.7,0,1,0,26.5
8,2023-04-17T00:07:00,0.5,西,1.5,南南東,9.2,91.3,0,1,0,26.5
9,2023-04-17T00:08:00,0.5,西北西,1.4,西,9.2,91.5,0,1,0,26.5
10,2023-04-17T00:09:00,0.5,西北西,1.4,西,9.2,91.9,0,1,0,26.5
11,2023-04-17T00:10:00,0.5,西北西,1.4,西,9.1,92.2,0,1,0,26.5
12,2023-04-17T00:11:00,0.5,西北西,1.4,西,9.2,92.4,0,1,0,26.5
13,2023-04-17T00:12:00,0.5,西北西,1.4,西,9.2,92.6,0,1,0,26.5
14,2023-04-17T00:13:00,0.6,西北西,1.6,東,9.2,92.7,0,1,0,26.5
15,2023-04-17T00:14:00,0.6,北西,1.6,東,9.3,93,0,1,0,26.5
16,2023-04-17T00:15:00,0.6,北西,1.6,東,9.3,93.1,0,1,0,26.5
17,2023-04-17T00:16:00,0.5,北北西,1.6,東,9.4,93.6,0,1,0,26.5
18,2023-04-17T00:17:00,0.5,北,1.6,東,9.4,93.5,0,1,0,26.5
19,2023-04-17T00:18:00,0.5,北北東,1.9,東北東,9.3,92.6,0,1,0,26.5
20,2023-04-17T00:19:00,0.6,北東,2.6,北北東,9.3,92.2,0,1,0,26.5
21,2023-04-17T00:20:00,0.8,北東,2.6,北北東,9.3,92.6,0,1,0,26.5
22,2023-04-17T00:21:00,0.9,北東,2.6,北北東,9.3,93,0,1,0,26.5
23,2023-04-17T00:22:00,1,東北東,2.6,北北東,9.3,93.3,0,1,0,26.5
24,2023-04-17T00:23:00,1.1,北東,2.6,北北東,9.3,93,0,0.5,0,26.5
25,2023-04-17T00:24:00,1.2,北東,2.6,北北東,9.3,93,0,0.5,0,26.5
26,2023-04-17T00:25:00,1.2,北東,2.6,北北東,9.3,92.9,0,0.5,0,26.5
27,2023-04-17T00:26:00,1.2,東北東,2.6,北北東,9.3,93,0,0.5,0,26.5
28,2023-04-17T00:27:00,1.2,東北東,2.6,北北東,9.3,93.1,0,0.5,0,26.5
29,2023-04-17T00:28:00,1.4,東北東,3.2,北東,9.2,92.7,0,0.5,0,26.5
30,2023-04-17T00:29:00,1.3,東北東,3.2,北東,9.1,92.1,0,0,0,26.5
31,2023-04-17T00:30:00,1.3,東北東,3.2,北東,9.1,92.4,0,0,0,26.5
32,2023-04-17T00:31:00,1.3,東北東,3.2,北東,9.1,92.6,0,0,0,26.5
33,2023-04-17T00:32:00,1.4,東北東,3.2,北東,9,91.8,0,0,0,26.5
34,2023-04-17T00:33:00,1.5,東北東,3.2,北東,9,92.1,0,0,0,26.5
35,2023-04-17T00:34:00,1.6,東北東,3.2,北東,9,92.1,0,0,0,26.5
36,2023-04-17T00:35:00,1.7,東北東,3.2,北東,9,92.3,0,0,0,26.5
37,2023-04-17T00:36:00,1.7,東北東,3.2,北東,9.1,92.4,0,0,0,26.5
38,2023-04-17T00:37:00,1.7,東北東,3.2,北東,9.1,92.6,0,0,0,26.5
39,2023-04-17T00:38:00,1.6,東北東,3.2,東北東,9.2,92.4,0,0,0,26.5
40,2023-04-17T00:39:00,1.5,東北東,3.2,東北東,9.2,92.1,0,0,0,26.5
41,2023-04-17T00:40:00,1.6,東北東,3.2,東北東,9.1,91.5,0,0,0,26.5
42,2023-04-17T00:41:00,1.5,東北東,3.2,東北東,9,91.2,0,0,0,26.5
43,2023-04-17T00:42:00,1.5,東北東,3.2,東北東,9,91.2,0,0,0,26.5
44,2023-04-17T00:43:00,1.5,東北東,2.9,東北東,9,91.3,0,0,0,26.5
45,2023-04-17T00:44:00,1.5,東,2.9,東北東,9.1,91.2,0,0,0,26.5
46,2023-04-17T00:45:00,1.6,東,2.9,東北東,9.1,91,0,0,0,26.5
47,2023-04-17T00:46:00,1.7,東,2.9,東北東,9.1,90.9,0,0,0,26.5
48,2023-04-17T00:47:00,1.7,東,2.9,東北東,9.1,90.7,0,0,0,26.5
49,2023-04-17T00:48:00,1.7,東,2.9,東北東,9.1,90.9,0,0,0,26.5
50,2023-04-17T00:49:00,1.6,東,2.9,東北東,9.2,90.9,0,0,0,26.5
51,2023-04-17T00:50:00,1.6,東南東,2.9,東,9.1,90.5,0,0,0,26.5
52,2023-04-17T00:51:00,1.5,東南東,2.9,東,9.1,90.4,0,0,0,26.5
53,2023-04-17T00:52:00,1.4,東南東,2.9,東,9,90,0,0,0,26.5
54,2023-04-17T00:53:00,1.3,東南東,2.9,東,9,89.9,0,0,0,26.5
55,2023-04-17T00:54:00,1.2,東南東,2.9,東,9,90.2,0,0,0,26.5
56,2023-04-17T00:55:00,1,東南東,2.9,東,9.1,90.5,0,0,0,26.5
57,2023-04-17T00:56:00,0.9,東南東,1.8,東,9.1,90.8,0,0,0,26.5
58,2023-04-17T00:57:00,0.8,東南東,1.8,東,9,90.2,0,0,0,26.5
59,2023-04-17T00:58:00,0.7,東南東,1.8,東,9,90.1,0,0,0,26.5
60,2023-04-17T00:59:00,0.7,東南東,1.8,東,9.1,90.5,0,0,0,26.5
61,2023-04-17T01:00:00,0.6,東,1.8,東,9,90.2,0,0,0,26.5
62,2023-04-17T01:01:00,0.5,東,1.8,東,9,90.5,0,0,0,26.5
63,2023-04-17T01:02:00,0.5,東南東,1.8,東,9,90.4,0,0,0,26.5
64,2023-04-17T01:03:00,0.4,東南東,1.4,東南東,8.9,90.2,0,0,0,26.5
65,2023-04-17T01:04:00,0.4,東南東,1.4,東南東,9,90.5,0,0,0,26.5
66,2023-04-17T01:05:00,0.5,東南東,1.4,東南東,9.1,91,0,0,0,26.5
67,2023-04-17T01:06:00,0.5,東南東,1.4,東南東,9.1,91,0,0,0,26.5
68,2023-04-17T01:07:00,0.6,南東,2,南東,9.2,91.6,0,0,0,26.5
69,2023-04-17T01:08:00,0.7,南東,2,南東,9.1,90.6,0,0,0,26.5
70,2023-04-17T01:09:00,0.8,南東,2,南東,9,90.5,0,0,0,26.5
71,2023-04-17T01:10:00,0.9,南東,2.4,南東,9,90.8,0,0,0,26.5
72,2023-04-17T01:11:00,1.1,南東,2.8,南東,8.9,90.4,0,0,0,26.5
73,2023-04-17T01:12:00,1.2,南東,2.8,南東,8.8,90.2,0,0,0,26.5
74,2023-04-17T01:13:00,1.3,南東,2.8,南東,8.8,90.3,0,0,0,26.5
75,2023-04-17T01:14:00,1.4,南東,2.8,南東,8.7,90.6,0,0,0,26.5
76,2023-04-17T01:15:00,1.5,南東,2.8,南東,8.8,91.3,0,0,0,26.5
77,2023-04-17T01:16:00,1.6,南東,2.8,南東,8.8,90.7,0,0,0,26.5
78,2023-04-17T01:17:00,1.5,南東,2.8,南東,8.8,91.2,0,0,0,26.5
79,2023-04-17T01:18:00,1.5,南東,2.8,南東,8.7,91.1,0,0,0,26.5
80,2023-04-17T01:19:00,1.5,南東,2.8,南東,8.7,91.1,0,0,0,26.5
81,2023-04-17T01:20:00,1.5,南東,2.8,南東,8.7,91.2,0,0,0,26.5
82,2023-04-17T01:21:00,1.4,南東,2.7,南東,8.7,91.4,0,0,0,26.5
83,2023-04-17T01:22:00,1.3,南東,2,南東,8.7,91.1,0,0,0,26.5
84,2023-04-17T01:23:00,1.3,南東,2,南東,8.7,91.4,0,0,0,26.5
85,2023-04-17T01:24:00,1.2,南東,2,南東,8.7,91.8,0,0,0,26.5
86,2023-04-17T01:25:00,1.1,南東,1.7,南東,8.8,92.2,0,0,0,26.5
87,2023-04-17T01:26:00,0.9,南東,1.7,南東,8.9,92.5,0,0,0,26.5
88,2023-04-17T01:27:00,0.8,南東,1.7,南東,8.8,92,0,0,0,26.5
89,2023-04-17T01:28:00,0.8,東南東,1.7,南東,8.8,92.1,0,0,0,26.5
90,2023-04-17T01:29:00,0.7,東南東,1.7,南東,8.7,91.9,0,0,0,26.5
91,2023-04-17T01:30:00,0.7,東南東,1.7,南東,8.7,91.9,0,0,0,26.5
92,2023-04-17T01:31:00,0.6,東,1.3,東北東,8.6,91.6,0,0,0,26.5
93,2023-04-17T01:32:00,0.6,東,1.5,東北東,8.6,91.7,0,0,0,26.5
94,2023-04-17T01:33:00,0.5,東,1.5,東北東,8.6,92.1,0,0,0,26.5
95,2023-04-17T01:34:00,0.5,東,1.5,東北東,8.6,92.3,0,0,0,26.5
96,2023-04-17T01:35:00,0.5,東北東,1.5,東北東,8.6,92.3,0,0,0,26.5
97,2023-04-17T01:36:00,0.5,東北東,1.5,東北東,8.6,92.4,0,0,0,26.5
98,2023-04-17T01:37:00,0.6,東北東,1.5,東北東,8.6,92.5,0,0,0,26.5
99,2023-04-17T01:38:00,0.6,東北東,1.5,東北東,8.8,93.2,0,0,0,26.5
100,2023-04-17T01:39:00,0.5,東,1.5,東北東,8.7,92.7,0,0,0,26.5
101,2023-04-17T01:40:00,0.6,東,1.5,東北東,8.6,92.6,0,0,0,26.5
102,2023-04-17T01:41:00,0.6,東,1.5,東北東,8.6,92.5,0,0,0,26.5
103,2023-04-17T01:42:00,0.6,東,1.4,東,8.5,92.4,0,0,0,26.5
104,2023-04-17T01:43:00,0.6,東南東,1.4,東,8.4,92.4,0,0,0,26.5
105,2023-04-17T01:44:00,0.6,東南東,1.4,東,8.5,92.8,0,0,0,26.5
106,2023-04-17T01:45:00,0.6,東南東,1.4,東,8.4,92.9,0,0,0,26.5
107,2023-04-17T01:46:00,0.6,東南東,1.4,東,8.4,93,0,0,0,26.5
108,2023-04-17T01:47:00,0.6,南東,1.4,東,8.4,93.3,0,0,0,26.5
109,2023-04-17T01:48:00,0.6,南東,1.4,東,8.4,93.3,0,0,0,26.5
110,2023-04-17T01:49:00,0.7,南東,1.4,東,8.3,93,0,0,0,26.5
111,2023-04-17T01:50:00,0.6,南南東,1.4,東,8.3,93.2,0,0,0,26.5
112,2023-04-17T01:51:00,0.5,南南東,1.4,東,8.2,93.2,0,0,0,26.5
113,2023-04-17T01:52:00,0.5,南南東,1,南東,8.3,93.5,0,0,0,26.5
114,2023-04-17T01:53:00,0.5,南南東,1,南東,8.4,94.2,0,0,0,26.5
115,2023-04-17T01:54:00,0.4,南南東,1,南東,8.2,93.4,0,0,0,26.5
116,2023-04-17T01:55:00,0.4,南南東,0.9,南南東,8.2,93.3,0,0,0,26.5
117,2023-04-17T01:56:00,0.4,南南東,1.1,南,8.1,93.3,0,0,0,26.5
118,2023-04-17T01:57:00,0.4,南南東,1.3,南南東,8.1,93.5,0,0,0,26.5
119,2023-04-17T01:58:00,0.4,南南東,1.3,南南東,8,93.7,0,0,0,26.5
120,2023-04-17T01:59:00,0.4,南東,1.3,南南東,8.1,93.9,0,0,0,26.5
121,2023-04-17T02:00:00,0.5,南東,1.3,南南東,8,93.8,0,0,0,26.5
122,2023-04-17T02:01:00,0.5,南東,1.3,南南東,8,93.8,0,0,0,26.5
123,2023-04-17T02:02:00,0.4,東南東,1.3,南南東,8,93.9,0,0,0,26.5
124,2023-04-17T02:03:00,0.4,東南東,1.3,南南東,8,94.1,0,0,0,26.5
125,2023-04-17T02:04:00,0.5,東南東,1.3,南南東,8,94.4,0,0,0,26.5
126,2023-04-17T02:05:00,0.5,東南東,1.3,南南東,8,94.2,0,0,0,26.5
127,2023-04-17T02:06:00,0.5,東,1.3,南南東,8,94.2,0,0,0,26.5
128,2023-04-17T02:07:00,0.5,東,1.1,東北東,7.9,94.2,0,0,0,26.5
129,2023-04-17T02:08:00,0.6,東,1.1,東北東,7.9,94.2,0,0,0,26.5
130,2023-04-17T02:09:00,0.6,東,1.1,東北東,7.9,94.5,0,0,0,26.5
131,2023-04-17T02:10:00,0.6,東,1.5,東南東,7.9,94.6,0,0,0,26.5
132,2023-04-17T02:11:00,0.7,東,1.7,東南東,7.9,94.4,0,0,0,26.5
133,2023-04-17T02:12:00,0.8,東,1.7,東南東,7.8,94.4,0,0,0,26.5
134,2023-04-17T02:13:00,0.9,東,1.8,東北東,7.8,94.4,0,0,0,26.5
135,2023-04-17T02:14:00,1,東,1.8,東北東,7.8,94.5,0,0,0,26.5
136,2023-04-17T02:15:00,1,東,1.8,東北東,7.8,94.6,0,0,0,26.5
137,2023-04-17T02:16:00,1,東,1.8,東北東,7.9,94.7,0,0,0,26.5
138,2023-04-17T02:17:00,1.1,東,1.8,東北東,7.9,94.9,0,0,0,26.5
139,2023-04-17T02:18:00,1.1,東,1.8,東北東,7.9,95,0,0,0,26.5
140,2023-04-17T02:19:00,1.2,東,1.8,東北東,7.9,95,0,0,0,26.5
141,2023-04-17T02:20:00,1.2,東,1.8,東北東,7.9,95,0,0,0,26.5
142,2023-04-17T02:21:00,1.2,東,1.8,東北東,7.9,95,0,0,0,26.5
143,2023-04-17T02:22:00,1.1,東,1.8,東北東,7.8,94.8,0,0,0,26.5
144,2023-04-17T02:23:00,1,東南東,1.8,南東,7.7,94.3,0,0,0,26.5
145,2023-04-17T02:24:00,0.9,東南東,1.8,南東,7.6,94.2,0,0,0,26.5
146,2023-04-17T02:25:00,0.8,南東,1.8,南東,7.7,94.7,0,0,0,26.5
147,2023-04-17T02:26:00,0.7,南南西,1.8,南東,7.7,94.8,0,0,0,26.5
148,2023-04-17T02:27:00,0.6,南西,1.8,南東,7.7,94.9,0,0,0,26.5
149,2023-04-17T02:28:00,0.5,西南西,1.8,南東,7.8,95.1,0,0,0,26.5
150,2023-04-17T02:29:00,0.4,西北西,1.8,南東,7.7,95.1,0,0,0,26.5
151,2023-04-17T02:30:00,0.3,北西,1.5,南東,7.8,95.1,0,0,0,26.5
152,2023-04-17T02:31:00,0.3,北北西,0.8,西南西,7.8,95.2,0,0,0,26.5
153,2023-04-17T02:32:00,0.3,北,0.8,西南西,7.8,95.2,0,0,0,26.5
154,2023-04-17T02:33:00,0.3,北,0.9,北北東,7.8,95.1,0,0,0,26.5
155,2023-04-17T02:34:00,0.4,北北東,0.9,北北東,7.7,95.1,0,0,0,26.5
156,2023-04-17T02:35:00,0.3,北北東,0.9,北北東,7.8,95.2,0,0,0,26.5
157,2023-04-17T02:36:00,0.4,北北東,0.9,北北東,7.8,95.2,0,0,0,26.5
158,2023-04-17T02:37:00,0.4,北北東,0.9,北北東,7.8,95.1,0,0,0,26.5
159,2023-04-17T02:38:00,0.4,北北東,0.9,北北東,7.9,95.3,0,0,0,26.5
160,2023-04-17T02:39:00,0.4,北北東,0.9,北北東,7.9,95.5,0,0,0,26.5
161,2023-04-17T02:40:00,0.4,北北東,1.5,南東,7.7,94.8,0,0,0,26.5
162,2023-04-17T02:41:00,0.5,北東,1.7,南南東,7.5,94.2,0,0,0,26.5
163,2023-04-17T02:42:00,0.6,東北東,1.7,南南東,7.5,94.3,0,0,0,26.5
164,2023-04-17T02:43:00,0.6,東,1.7,南南東,7.5,94.6,0,0,0,26.5
165,2023-04-17T02:44:00,0.7,東南東,1.7,南南東,7.4,94.8,0,0,0,26.5
166,2023-04-17T02:45:00,0.9,南東,1.7,南南東,7.4,94.9,0,0,0,26.5
167,2023-04-17T02:46:00,1,南東,1.7,南南東,7.4,95,0,0,0,26.5
168,2023-04-17T02:47:00,1.1,南東,1.7,南南東,7.4,95.1,0,0,0,26.5
169,2023-04-17T02:48:00,1.2,南東,1.7,南南東,7.4,95.2,0,0,0,26.5
170,2023-04-17T02:49:00,1.3,南東,2.1,東南東,7.5,95.2,0,0,0,26.5
171,2023-04-17T02:50:00,1.4,南東,2.1,東南東,7.4,95.2,0,0,0,26.5
172,2023-04-17T02:51:00,1.4,東南東,2.1,東南東,7.5,95.3,0,0,0,26.5
173,2023-04-17T02:52:00,1.4,東南東,2.1,東南東,7.5,95.3,0,0,0,26.5
174,2023-04-17T02:53:00,1.4,東南東,2.1,東南東,7.4,95.2,0,0,0,26.5
175,2023-04-17T02:54:00,1.3,東南東,2.1,東南東,7.4,95.2,0,0,0,26.5
176,2023-04-17T02:55:00,1.2,東南東,2.1,東南東,7.4,95.3,0,0,0,26.5
177,2023-04-17T02:56:00,1.1,東南東,2.1,東南東,7.4,95.2,0,0,0,26.5
178,2023-04-17T02:57:00,1.1,東,2.1,東南東,7.4,95.2,0,0,0,26.5
179,2023-04-17T02:58:00,1,東,2.1,東南東,7.4,95.2,0,0,0,26.5
180,2023-04-17T02:59:00,0.9,東,1.9,東南東,7.4,95.2,0,0,0,26.5
181,2023-04-17T03:00:00,0.9,東,1.8,東南東,7.4,95.2,0,0,0,26.5
182,2023-04-17T03:01:00,0.9,東北東,1.5,東南東,7.3,95.2,0,0,0,26.5
183,2023-04-17T03:02:00,0.8,東北東,1.3,東北東,7.3,95.2,0,0,0,26.5
184,2023-04-17T03:03:00,0.8,東北東,1.3,東北東,7.3,95.2,0,0,0,26.5
185,2023-04-17T03:04:00,0.8,東北東,1.3,東北東,7.3,95.3,0,0,0,26.5
186,2023-04-17T03:05:00,0.7,東北東,1.3,東北東,7.3,95.3,0,0,0,26.5
187,2023-04-17T03:06:00,0.7,東北東,1.3,東北東,7.3,95.3,0,0,0,26.5
188,2023-04-17T03:07:00,0.7,東北東,1.3,東北東,7.3,95.3,0,0,0,26.5
189,2023-04-17T03:08:00,0.6,東北東,1.3,東北東,7.3,95.4,0,0,0,26.5
190,2023-04-17T03:09:00,0.6,東北東,1.3,東北東,7.5,95.5,0,0,0,26.5
191,2023-04-17T03:10:00,0.5,東北東,1.2,北東,7.6,96,0,0,0,26.5
192,2023-04-17T03:11:00,0.4,東,1.2,北東,7.6,95.8,0,0,0,26.5
193,2023-04-17T03:12:00,0.3,東,1,東北東,7.5,95.5,0,0,0,26.5
194,2023-04-17T03:13:00,0.4,東南東,1.7,東南東,7.6,95.4,0,0,0,26.5
195,2023-04-17T03:14:00,0.5,東南東,1.7,東南東,7.5,95.4,0,0,0,26.5
196,2023-04-17T03:15:00,0.6,東南東,1.7,東南東,7.5,95.3,0,0,0,26.5
197,2023-04-17T03:16:00,0.6,東南東,1.7,東南東,7.5,95.3,0,0,0,26.5
198,2023-04-17T03:17:00,0.8,南東,1.9,東南東,7.4,95.1,0,0,0,26.5
199,2023-04-17T03:18:00,0.9,南東,1.9,東南東,7.4,95.1,0,0,0,26.5
200,2023-04-17T03:19:00,1,南東,2,東南東,7.4,95.2,0,0,0,26.5
201,2023-04-17T03:20:00,1.1,東南東,2,東南東,7.4,95.3,0,0,0,26.5
202,2023-04-17T03:21:00,1.3,東南東,2,東南東,7.4,95.4,0,0,0,26.5
203,2023-04-17T03:22:00,1.4,東南東,2.1,東南東,7.4,95.3,0,0,0,26.5
204,2023-04-17T03:23:00,1.5,東南東,2.1,東南東,7.4,95.3,0,0,0,26.5
205,2023-04-17T03:24:00,1.5,東南東,2.1,東南東,7.4,95.3,0,0,0,26.5
206,2023-04-17T03:25:00,1.5,東南東,2.1,東南東,7.4,95.4,0,0,0,26.5
207,2023-04-17T03:26:00,1.5,東南東,2.1,東南東,7.4,95.4,0,0,0,26.5
208,2023-04-17T03:27:00,1.4,東,2.1,東南東,7.4,95.4,0,0,0,26.5
209,2023-04-17T03:28:00,1.3,東,2.1,東南東,7.4,95.3,0,0,0,26.5
210,2023-04-17T03:29:00,1.2,東,2.1,東南東,7.4,95.3,0,0,0,26.5
211,2023-04-17T03:30:00,1.2,東,2.1,東南東,7.4,95.4,0,0,0,26.5
212,2023-04-17T03:31:00,1.1,東,2.1,東南東,7.4,95.4,0,0,0,26.5
213,2023-04-17T03:32:00,1,東,2,東南東,7.5,95.4,0,0,0,26.5
214,2023-04-17T03:33:00,0.9,東,1.8,東南東,7.5,95.4,0,0,0,26.5
215,2023-04-17T03:34:00,0.9,東,1.6,東南東,7.5,95.5,0,0,0,26.5
216,2023-04-17T03:35:00,0.9,東,1.6,東南東,7.5,95.5,0,0,0,26.5
217,2023-04-17T03:36:00,0.9,東,1.6,東南東,7.5,95.5,0,0,0,26.5
218,2023-04-17T03:37:00,0.9,東南東,1.6,東南東,7.5,95.5,0,0,0,26.5
219,2023-04-17T03:38:00,0.9,東南東,1.6,東南東,7.5,95.4,0,0,0,26.5
220,2023-04-17T03:39:00,1,東南東,1.6,東南東,7.5,95.6,0,0,0,26.5
221,2023-04-17T03:40:00,1,東南東,1.6,東南東,7.5,95.5,0,0,0,26.5
222,2023-04-17T03:41:00,1,東南東,1.6,東南東,7.5,95.4,0,0,0,26.5
223,2023-04-17T03:42:00,1,東南東,1.6,東南東,7.5,95.4,0,0,0,26.5
224,2023-04-17T03:43:00,1,東南東,1.6,東南東,7.5,95.4,0,0,0,26.5
225,2023-04-17T03:44:00,0.9,東南東,1.3,東南東,7.5,95.4,0,0,0,26.5
226,2023-04-17T03:45:00,0.9,東南東,1.3,東南東,7.5,95.4,0,0,0,26.5
227,2023-04-17T03:46:00,0.8,東南東,1.3,東南東,7.5,95.5,0,0,0,26.5
228,2023-04-17T03:47:00,0.8,東,1.3,東南東,7.4,95.3,0,0,0,26.5
229,2023-04-17T03:48:00,0.7,東,1.2,南東,7.4,95.3,0,0,0,26.5
230,2023-04-17T03:49:00,0.7,東,1.2,南東,7.4,95.4,0,0,0,26.5
231,2023-04-17T03:50:00,0.7,東,1.1,東北東,7.4,95.4,0,0,0,26.5
232,2023-04-17T03:51:00,0.6,東,1.1,東北東,7.4,95.5,0,0,0,26.5
233,2023-04-17T03:52:00,0.6,東,1.1,東北東,7.5,95.6,0,0,0,26.5
234,2023-04-17T03:53:00,0.6,東,1.1,東北東,7.4,95.5,0,0,0,26.5
235,2023-04-17T03:54:00,0.6,東,1.1,東北東,7.6,95.6,0,0,0,26.5
236,2023-04-17T03:55:00,0.6,東,1.2,南南東,7.7,95.9,0,0,0,26.5
237,2023-04-17T03:56:00,0.6,東南東,1.2,南南東,7.6,95.7,0,0,0,26.5
238,2023-04-17T03:57:00,0.7,東南東,1.6,南南東,7.5,95.4,0,0,0,26.5
239,2023-04-17T03:58:00,0.7,南東,1.6,南南東,7.5,95.4,0,0,0,26.5
240,2023-04-17T03:59:00,0.6,南東,1.6,南南東,7.5,95.4,0,0,0,26.5
241,2023-04-17T04:00:00,0.6,南東,1.6,南南東,7.5,95.5,0,0,0,26.5
242,2023-04-17T04:01:00,0.6,南南東,1.6,南南東,7.6,95.7,0,0,0,26.5
243,2023-04-17T04:02:00,0.6,南南東,1.6,南南東,7.6,95.6,0,0,0,26.5
244,2023-04-17T04:03:00,0.6,南南東,1.6,南南東,7.5,95.5,0,0,0,26.5
245,2023-04-17T04:04:00,0.7,南南東,1.6,南南東,7.4,95.3,0,0,0,26.5
246,2023-04-17T04:05:00,0.7,南南東,1.6,南南東,7.4,95.3,0,0,0,26.5
247,2023-04-17T04:06:00,0.7,南東,1.6,南南東,7.4,95.5,0,0,0,26.5
248,2023-04-17T04:07:00,0.6,南東,1.4,南,7.4,95.5,0,0,0,26.5
249,2023-04-17T04:08:00,0.6,南東,1.4,南,7.4,95.5,0,0,0,26.5
250,2023-04-17T04:09:00,0.6,南東,1.4,南,7.4,95.5,0,0,0,26.5
251,2023-04-17T04:10:00,0.5,東南東,1.4,南,7.4,95.6,0,0,0,26.5
252,2023-04-17T04:11:00,0.5,東南東,1.4,南,7.4,95.5,0,0,0,26.5
253,2023-04-17T04:12:00,0.5,東南東,1.4,南,7.4,95.6,0,0,0,26.5
254,2023-04-17T04:13:00,0.5,東南東,1.5,東北東,7.3,95.4,0,0,0,26.5
255,2023-04-17T04:14:00,0.6,東,1.8,東北東,7.2,95.3,0,0,0,26.5
256,2023-04-17T04:15:00,0.6,東,1.9,東,7.2,95.2,0,0,0,26.5
257,2023-04-17T04:16:00,0.7,東,1.9,東,7.1,95.3,0,0,0,26.5
258,2023-04-17T04:17:00,0.8,東,1.9,東,7.2,95.3,0,0,0,26.5
259,2023-04-17T04:18:00,0.9,東,1.9,東,7.2,95.4,0,0,0,26.5
260,2023-04-17T04:19:00,1,東,2.6,東北東,7.2,95.4,0,0,0,26.5
261,2023-04-17T04:20:00,1.2,東,2.6,東北東,7.1,95.4,0,0,0,26.5
262,2023-04-17T04:21:00,1.3,東,2.8,東,7.1,95.4,0,0,0,26.5
263,2023-04-17T04:22:00,1.5,東,4.1,東南東,7.1,95.4,0,0,0,26.5
264,2023-04-17T04:23:00,1.7,東,4.1,東南東,7.1,95.4,0,0,0,26.5
265,2023-04-17T04:24:00,1.7,東,4.1,東南東,7.2,95.6,0,0,0,26.5
266,2023-04-17T04:25:00,1.7,東,4.1,東南東,7.2,95.7,0,0,0,26.5
267,2023-04-17T04:26:00,1.7,東,4.1,東南東,7.2,95.7,0,0,0,26.5
268,2023-04-17T04:27:00,1.7,東,4.1,東南東,7.2,95.7,0,0,0,26.5
269,2023-04-17T04:28:00,1.7,東,4.1,東南東,7.2,95.6,0,0,0,26.5
270,2023-04-17T04:29:00,1.6,東,4.1,東南東,7.2,95.6,0,0,0,26.5
271,2023-04-17T04:30:00,1.6,東,4.1,東南東,7.2,95.6,0,0,0,26.5
272,2023-04-17T04:31:00,1.5,東,4.1,東南東,7.2,95.6,0,0,0,26.5
273,2023-04-17T04:32:00,1.3,東,3.5,東,7.2,95.6,0,0,0,26.5
274,2023-04-17T04:33:00,1.2,東,2.1,東,7.2,95.6,0,0,0,26.5
275,2023-04-17T04:34:00,1.2,東,2.1,東,7.2,95.6,0,0,0,26.5
276,2023-04-17T04:35:00,1.2,東,1.9,東,7.2,95.6,0,0,0,26.5
277,2023-04-17T04:36:00,1.2,東北東,1.9,東,7.2,95.6,0,0,0,26.5
278,2023-04-17T04:37:00,1.2,東北東,1.9,東,7.2,95.6,0,0,0,26.5
279,2023-04-17T04:38:00,1.2,東北東,1.9,東北東,7.2,95.5,0,0,0,26.5
280,2023-04-17T04:39:00,1.2,東北東,2.1,東,7.2,95.6,0,0,0,26.5
281,2023-04-17T04:40:00,1.2,東北東,2.4,東,7.1,95.5,0,0,0,26.5
282,2023-04-17T04:41:00,1.3,東北東,2.4,東,7.1,95.4,0,0,0,26.5
283,2023-04-17T04:42:00,1.4,東北東,2.5,東北東,7.1,95.4,0,0,0,26.5
284,2023-04-17T04:43:00,1.4,東北東,2.5,東北東,7.1,95.5,0,0,0,26.5
285,2023-04-17T04:44:00,1.3,東北東,2.5,東北東,7.1,95.5,0,0,0,26.5
286,2023-04-17T04:45:00,1.4,東,2.7,東南東,7.1,95.6,0,0,0,26.5
287,2023-04-17T04:46:00,1.6,東,3.2,南東,7.2,95.6,0,0,0,26.5
288,2023-04-17T04:47:00,1.7,東,3.5,南東,7.2,95.7,0,0,0,26.5
289,2023-04-17T04:48:00,1.8,東,3.5,南東,7.2,95.7,0,0,0,26.5
290,2023-04-17T04:49:00,1.9,東,3.5,南東,7.2,95.7,0,0,0,26.5
291,2023-04-17T04:50:00,1.8,東,3.5,南東,7.2,95.6,0,0,0,26.5
292,2023-04-17T04:51:00,1.8,東,3.5,南東,7.2,95.6,0,0,0,26.5
293,2023-04-17T04:52:00,1.7,東,3.5,南東,7.3,95.7,0,0,0,26.5
294,2023-04-17T04:53:00,1.7,東,3.5,南東,7.2,95.7,0,0,0,26.5
295,2023-04-17T04:54:00,1.7,東,3.5,南東,7.3,95.7,0,0,0,26.5
296,2023-04-17T04:55:00,1.6,東,3.5,南東,7.3,95.7,0,0,0,26.5
297,2023-04-17T04:56:00,1.5,東,3.5,南東,7.3,95.7,0,0,0,26.5
298,2023-04-17T04:57:00,1.4,東北東,2.9,東南東,7.3,95.7,0,0,0,26.5
299,2023-04-17T04:58:00,1.3,東北東,2.8,東,7.3,95.7,0,0,0,26.5
300,2023-04-17T04:59:00,1.3,東北東,2.8,東,7.3,95.7,0,0,0,26.5
301,2023-04-17T05:00:00,1.3,北東,2,北東,7.3,95.7,0,0,0,26.5
302,2023-04-17T05:01:00,1.3,北東,2,北東,7.3,95.7,0,0,0,26.5
303,2023-04-17T05:02:00,1.2,北東,2,北東,7.4,95.8,0,0,0,26.5
304,2023-04-17T05:03:00,1.1,北東,2,北東,7.5,95.9,0,0,0,26.5
305,2023-04-17T05:04:00,1.2,東北東,2,北東,7.5,95.8,0,0,0,26.5
306,2023-04-17T05:05:00,1.1,東北東,2,北東,7.4,95.7,0,0,0,26.5
307,2023-04-17T05:06:00,1.1,東北東,2,北東,7.5,95.8,0,0,0,26.5
308,2023-04-17T05:07:00,1,東,2,北東,7.4,95.7,0,0,0,26.5
309,2023-04-17T05:08:00,0.9,東,1.8,北東,7.4,95.7,0,0,0,26.5
310,2023-04-17T05:09:00,0.8,東南東,1.7,南東,7.5,95.8,0,0,0,26.5
311,2023-04-17T05:10:00,0.7,東南東,1.7,南東,7.5,95.7,0,0,0,26.5
312,2023-04-17T05:11:00,0.7,東南東,1.7,南東,7.5,95.7,0,0,0,26.5
313,2023-04-17T05:12:00,0.7,東南東,1.7,南東,7.5,95.7,0,0,0,26.5
314,2023-04-17T05:13:00,0.8,東南東,1.7,南東,7.5,95.6,0,0,0,26.5
315,2023-04-17T05:14:00,0.7,東南東,1.7,南東,7.5,95.6,0,0,0,26.5
316,2023-04-17T05:15:00,0.8,東,1.7,南東,7.4,95.6,0,0,0,26.5
317,2023-04-17T05:16:00,0.8,東,1.7,南東,7.4,95.6,0,0,0,26.5
318,2023-04-17T05:17:00,0.7,東,1.4,東北東,7.4,95.6,0,0,0,26.5
319,2023-04-17T05:18:00,0.8,東北東,1.4,東北東,7.5,95.8,0,0,0,26.5
320,2023-04-17T05:19:00,0.8,東北東,1.5,東,7.5,95.7,0,0,0,26.5
321,2023-04-17T05:20:00,0.9,東北東,1.8,東,7.5,95.7,0,0,0,26.5
322,2023-04-17T05:21:00,1,東北東,1.8,東,7.5,95.7,0,0,0,26.5
323,2023-04-17T05:22:00,1,東北東,1.8,東,7.4,95.7,0,0,0,26.5
324,2023-04-17T05:23:00,1,東北東,1.8,東,7.4,95.6,0,0,0,26.5
325,2023-04-17T05:24:00,1,東北東,1.8,東,7.4,95.6,0,0,0,26.5
326,2023-04-17T05:25:00,1,東北東,1.8,東,7.5,95.7,0,0,0,26.5
327,2023-04-17T05:26:00,1,東,1.8,東,7.5,95.8,0,0,0,26.5
328,2023-04-17T05:27:00,1,東,1.8,東,7.5,95.8,0,0,0,26.5
329,2023-04-17T05:28:00,1,東,1.8,東,7.5,95.8,0,0,0,26.5
330,2023-04-17T05:29:00,0.9,東,1.8,東,7.5,95.7,0,0,0,26.5
331,2023-04-17T05:30:00,0.8,東,1.5,東,7.5,95.6,0,0,0,26.5
332,2023-04-17T05:31:00,0.8,東北東,1.4,東,7.5,95.7,0,0,0,26.5
333,2023-04-17T05:32:00,0.7,東,1.4,東,7.5,95.8,0,0,0,26.5
334,2023-04-17T05:33:00,0.7,東,1.4,東,7.5,95.8,0,0,0,26.5
335,2023-04-17T05:34:00,0.8,東,1.4,東,7.5,95.8,0,0,0,26.5
336,2023-04-17T05:35:00,0.7,東,1.4,東,7.7,95.9,0,0,0,26.5
337,2023-04-17T05:36:00,0.7,東,1.4,東,7.6,96,0,0,0,26.5
338,2023-04-17T05:37:00,0.7,東北東,1.3,東,7.6,95.7,0,0,0,26.5
339,2023-04-17T05:38:00,0.6,東,1.3,東,7.5,95.6,0,0,0,26.5
340,2023-04-17T05:39:00,0.6,東,1.3,東,7.6,95.7,0,0,0,26.5
341,2023-04-17T05:40:00,0.6,東,1.3,東,7.6,95.8,0,0,0,26.5
342,2023-04-17T05:41:00,0.6,東,1.3,東,7.6,95.7,0,0,0,26.5
343,2023-04-17T05:42:00,0.7,東,1.5,東南東,7.6,95.8,0,0,0,26.5
344,2023-04-17T05:43:00,0.7,東,1.5,東南東,7.6,95.8,0,0,0,26.5
345,2023-04-17T05:44:00,0.7,東,1.5,東南東,7.6,95.8,0,0,0,26.5
346,2023-04-17T05:45:00,0.7,東,1.5,東南東,7.7,95.8,0,0,0,26.5
347,2023-04-17T05:46:00,0.7,東南東,1.5,東南東,7.7,95.8,0,0,0,26.5
348,2023-04-17T05:47:00,0.7,東南東,1.5,東南東,7.6,95.7,0,0,0,26.5
349,2023-04-17T05:48:00,0.8,東南東,1.5,東南東,7.6,95.6,0,0,0,26.5
350,2023-04-17T05:49:00,0.7,東南東,1.5,東南東,7.6,95.7,0,0,0,26.5
351,2023-04-17T05:50:00,0.7,東南東,1.5,東南東,7.7,95.8,0,0,0,26.5
352,2023-04-17T05:51:00,0.6,東南東,1.5,東南東,7.7,95.8,0,0,0,26.5
353,2023-04-17T05:52:00,0.5,東南東,1.5,南東,7.8,95.9,0,0,0,26.5
354,2023-04-17T05:53:00,0.4,東南東,1.5,南東,7.8,96,0,0,0,26.5
355,2023-04-17T05:54:00,0.4,東,1,東北東,7.8,95.8,0,0,0,26.5
356,2023-04-17T05:55:00,0.3,東,1,東北東,7.7,95.7,0,0,0,26.5
357,2023-04-17T05:56:00,0.4,東,1,東北東,7.7,95.6,0,0,0,26.5
358,2023-04-17T05:57:00,0.4,東北東,1,北東,7.6,95.6,0,0,0,26.5
359,2023-04-17T05:58:00,0.4,東北東,1,北東,7.6,95.6,0,0,0,26.5
360,2023-04-17T05:59:00,0.4,北東,1,北東,7.6,95.7,0,0,0,26.5
361,2023-04-17T06:00:00,0.4,北東,1,北東,7.6,95.7,0,0,0,26.5
362,2023-04-17T06:01:00,0.5,北東,1,北東,7.7,95.7,0,0,0,26.5
363,2023-04-17T06:02:00,0.5,北東,1,北東,7.7,95.8,0,0,0,26.5
364,2023-04-17T06:03:00,0.5,北東,1,北東,7.7,95.8,0,0,0,26.5
365,2023-04-17T06:04:00,0.5,北東,1,北東,7.7,95.7,0,0,0,26.5
366,2023-04-17T06:05:00,0.4,北東,1,北東,7.7,95.7,0,0,0,26.5
367,2023-04-17T06:06:00,0.4,北東,0.9,東,7.8,95.8,0,0,0,26.5
368,2023-04-17T06:07:00,0.4,北東,0.9,東,7.8,95.9,0,0,0,26.5
369,2023-04-17T06:08:00,0.4,東北東,0.9,東,7.8,95.9,0,0,0,26.5
370,2023-04-17T06:09:00,0.4,東北東,0.9,東,7.8,95.8,0,0,0,26.5
371,2023-04-17T06:10:00,0.4,東北東,1.1,北北東,7.8,95.8,0,0,0,26.5
372,2023-04-17T06:11:00,0.4,東北東,1.1,北北東,7.8,95.8,0,0,0,26.5
373,2023-04-17T06:12:00,0.5,東北東,1.1,北北東,7.9,95.8,0,0,0,26.5
374,2023-04-17T06:13:00,0.5,東北東,1.1,北北東,7.8,95.8,0,0,0,26.5
375,2023-04-17T06:14:00,0.5,東北東,1.1,北北東,7.9,95.8,0,0,0,26.5
376,2023-04-17T06:15:00,0.6,東,1.1,北北東,8,96,0,0,0,26.5
377,2023-04-17T06:16:00,0.6,東,1.1,北北東,8.1,96,0,0,0,26.5
378,2023-04-17T06:17:00,0.6,東,1.1,北北東,8.2,96.1,0,0,0,26.5
379,2023-04-17T06:18:00,0.6,東,1.1,北北東,8.2,96,0,0,0,26.5
380,2023-04-17T06:19:00,0.6,東,1.4,東南東,8.2,96,0,0,0,26.5
381,2023-04-17T06:20:00,0.7,東,1.6,東南東,8.1,95.8,0,0,0,26.5
382,2023-04-17T06:21:00,0.7,東南東,1.6,東南東,8,95.5,0,0,0,26.5
383,2023-04-17T06:22:00,0.8,東,1.6,東南東,8.2,95.7,0,0,0,26.5
384,2023-04-17T06:23:00,0.8,東,1.6,東南東,8.1,95.6,0,0,0,26.5
385,2023-04-17T06:24:00,0.9,東,1.6,東南東,8,95.6,0,0,0,26.5
386,2023-04-17T06:25:00,0.9,東,1.6,東南東,8,95.6,0,0,0,26.5
387,2023-04-17T06:26:00,0.9,東,1.6,東南東,8,95.7,0,0,0,26.5
388,2023-04-17T06:27:00,0.9,東北東,1.6,東南東,8,95.5,0,0,0,26.5
389,2023-04-17T06:28:00,0.9,東北東,1.6,東南東,8,95.6,0,0,0,26.5
390,2023-04-17T06:29:00,0.9,東北東,1.6,東南東,8,95.6,0,0,0,26.5
391,2023-04-17T06:30:00,0.9,東北東,1.5,北東,8,95.7,0,0,0,26.5
392,2023-04-17T06:31:00,1,東北東,2.2,東,8.1,95.6,0,0,0,26.5
393,2023-04-17T06:32:00,1,東北東,2.2,東,8.1,95.7,0,0,0,26.5
394,2023-04-17T06:33:00,1.1,東北東,2.2,東,8.2,95.8,0,0,0,26.5
395,2023-04-17T06:34:00,1.1,東北東,2.2,東,8.3,95.9,0,0,0,26.5
396,2023-04-17T06:35:00,1.1,東北東,2.2,東,8.3,95.8,0,0,0,26.5
397,2023-04-17T06:36:00,1,東,2.2,東,8.3,95.7,0,0,0,26.5
398,2023-04-17T06:37:00,1.1,東,2.2,東,8.3,95.8,0,0,0,26.5
399,2023-04-17T06:38:00,1.1,東,2.2,東,8.3,95.5,0,0,0,26.5
400,2023-04-17T06:39:00,1.1,東,2.2,東,8.3,95.6,0,0,0,26.5
401,2023-04-17T06:40:00,1.1,東,2.2,東,8.4,95.6,0,0,0,26.5
402,2023-04-17T06:41:00,1.1,東,2,東,8.4,95.6,0,0,0,26.5
403,2023-04-17T06:42:00,1,東,1.7,東,8.5,95.6,0,0,0,26.5
404,2023-04-17T06:43:00,1,東,1.6,東,8.6,95.8,0,0,0,26.5
405,2023-04-17T06:44:00,1,東,1.7,東北東,8.6,95.8,0,0,0,26.5
406,2023-04-17T06:45:00,0.9,東,1.7,東北東,8.6,95.6,0,0,0,26.5
407,2023-04-17T06:46:00,1,東,1.7,東北東,8.6,95.6,0,0,0,26.5
408,2023-04-17T06:47:00,1,東,1.7,東北東,8.7,95.6,0,0,0,26.5
409,2023-04-17T06:48:00,1,東,1.7,東北東,8.6,95.5,0,0,0,26.5
410,2023-04-17T06:49:00,1,東北東,1.7,東北東,8.7,95.5,0,0,0,26.5
411,2023-04-17T06:50:00,0.9,東北東,1.7,東北東,8.7,95.6,0,0,0,26.5
412,2023-04-17T06:51:00,0.8,北東,1.7,東北東,8.6,95.1,0,0,0,26.5
413,2023-04-17T06:52:00,0.7,北東,1.7,東北東,8.7,95.2,0,0,0,26.5
414,2023-04-17T06:53:00,0.7,北東,1.7,東北東,8.7,95.4,0,0,0,26.5
415,2023-04-17T06:54:00,0.7,北北東,1.6,北東,8.6,95.1,0,0,0,26.5